STARLINK-35416 (66248 NORAD) Tracking and Keplerian Element Data

This shows tracking and keplerian element data for the satellite.

Feedback or suggestion? Click here.




ElementValue
Catalog66248
NameSTARLINK-35416
Epoch Orbit902
Epoch Day354.21459368
Epoch Year2025
RAAN294.1056
Inclination53.1613
Eccentricity8.19E-05
Argument of Perigee131.762
Mean Anonmoly228.3455
Mean Motion15.39633327
Decay Rate-0.00032389
L11 66248U 25245Q 25354.21459368 -.00032389 00000+0 -80284-3 0 9992
L22 66248 53.1613 294.1056 0000819 131.7620 228.3455 15.39633327 9024



Live tracking and technical data element details for STARLINK-35416 (NORAD 66248). STARLINK-35416 can be tracked NOW for your location showing map with azimuth and elevation plus other details from your city location.







IsCatalogInMostPopularTable: catalog: 66248, numindb: 8
Update: records affected: 1



GetName: 66248 STARLINK-35416

Hit Count: updated at: Wed, 15 Apr 2026 00:56:58 GMT